Wind_Speed
8 8 8 7 8 8 8 7 7 7 7 7 7 7 7 7 7 7 8 8 8 8 8 8 8 7 8 8 8 9 9 9 10 10 10 10 10 11 11 11 11 12 12
8 9 8 7 7 8 7 7 7 7 7 7 7 7 7 8 7 8 8 8 9 9 8 8 9 8 8 9 9 10 10 10 11 11 11 11 12 12 12 12 12 13 13
8 9 7 7 8 8 7 7 7 7 7 7 7 7 7 8 8 9 9 9 9 9 9 9 9 8 9 9 10 11 11 11 12 12 13 13 13 12 12 13 13 14 14
8 8 7 7 7 8 8 7 7 7 7 8 8 8 8 8 9 10 9 10 10 10 10 10 10 10 10 10 11 11 11 12 12 13 13 12 12 12 13 13 13 14 14
9 8 8 7 8 8 8 8 8 8 8 8 9 9 9 10 10 11 11 11 11 11 12 12 12 12 12 12 13 12 12 12 12 12 13 13 13 13 13 13 14 14 14
10 9 8 8 8 9 9 9 9 9 9 9 10 10 11 11 11 12 12 13 13 13 13 13 13 13 13 13 14 13 13 13 13 13 13 13 14 14 14 14 14 15 16
10 10 10 8 8 9 9 9 10 9 10 10 11 11 12 12 13 14 14 14 14 15 14 15 14 15 15 15 15 14 14 14 14 15 15 15 15 16 16 15 15 16 17
9 9 9 9 9 9 9 10 9 10 10 11 12 13 13 13 14 14 15 15 15 15 16 16 16 16 16 16 16 15 15 14 15 16 16 16 17 17 17 17 17 17 18
10 10 10 10 10 10 11 10 10 11 12 12 13 14 14 14 15 16 16 16 16 16 16 16 17 18 17 17 16 16 16 15 16 17 17 18 18 19 19 19 19 19 19
11 10 11 11 12 12 12 11 11 12 13 14 15 15 16 16 17 17 17 17 17 16 17 17 17 18 17 18 18 17 17 18 18 17 18 19 20 20 21 21 21 21 21
12 12 12 12 12 13 13 12 13 13 14 15 16 17 17 18 18 19 19 19 18 18 19 19 19 19 19 19 19 19 19 19 19 19 19 19 19 20 20 21 21 21 22
14 14 13 13 13 13 14 14 15 15 15 16 17 18 18 19 19 20 20 20 20 20 20 20 20 20 19 19 19 20 20 20 20 20 20 20 20 20 20 21 21 22 22
16 15 15 15 14 15 15 16 17 17 17 18 18 19 19 20 20 21 21 21 20 21 21 21 22 21 21 20 20 21 21 21 21 21 21 21 21 21 22 22 23 23 23
17 16 17 17 16 16 16 18 18 18 18 19 20 20 21 21 22 22 23 23 22 23 23 23 23 23 22 22 21 21 21 22 21 22 22 22 23 23 23 23 24 24 25
19 19 19 19 18 18 18 19 19 20 20 20 21 21 21 22 23 23 24 25 24 25 25 24 24 24 24 23 23 22 22 22 23 23 23 24 24 24 24 24 25 25 26
20 20 20 21 21 21 20 20 21 21 21 22 23 23 23 23 24 25 25 26 26 26 26 26 25 25 25 25 24 24 24 24 24 24 25 25 25 25 26 26 26 26 26
22 22 21 21 22 22 22 23 23 23 23 25 25 25 25 25 26 26 26 27 27 27 27 26 26 26 25 25 26 25 25 25 25 25 26 26 26 26 26 26 26 26 27
23 23 23 24 24 24 24 24 25 25 25 26 26 26 27 27 27 27 27 27 27 27 27 27 26 26 26 26 26 26 26 26 26 26 26 26 26 27 27 27 27 28 28
24 25 25 24 25 26 26 26 27 28 28 27 27 27 27 27 28 28 27 28 28 28 27 27 28 27 26 26 27 27 27 27 27 27 27 27 27 27 28 28 28 29 29
26 27 27 26 26 27 28 28 28 28 28 27 27 28 28 28 28 29 29 29 29 29 29 28 28 28 28 28 28 28 28 28 28 28 28 28 29 29 29 29 29 30 30
27 27 27 28 29 29 28 28 28 28 28 28 28 28 28 29 29 30 30 30 30 30 30 29 29 30 30 29 29 29 29 29 29 29 29 29 29 29 30 30 30 30 30
27 27 28 29 30 30 29 29 29 29 29 28 28 29 29 29 30 30 31 31 31 31 31 30 30 30 30 30 30 30 30 29 30 29 30 30 30 30 30 30 31 31 30
28 28 28 29 30 30 30 29 29 30 30 30 30 30 30 30 31 31 32 32 32 32 32 32 32 31 31 32 31 31 31 30 30 31 31 31 31 31 31 31 30 31 31
29 29 30 30 29 29 31 31 31 31 31 31 31 31 31 31 32 33 33 33 33 33 33 33 33 33 33 33 31 31 31 31 32 32 32 31 31 32 32 32 32 32 32
29 30 31 30 29 30 30 32 32 31 31 31 30 31 32 33 33 33 34 34 34 33 33 33 34 33 33 32 32 32 32 32 32 32 32 32 32 33 32 33 33 32 32
29 29 29 29 30 31 32 32 31 31 30 31 31 32 33 34 34 34 34 34 34 33 33 34 33 33 32 32 32 32 32 32 32 32 32 32 32 32 33 33 33 33 33
Wind_Direction
1 360 356 4 6 4 5 4 359 357 354 350 347 341 338 338 335 336 337 338 335 330 329 326 319 310 303 297 292 291 292 292 291 288 286 282 279 276 275 276 276 276 274
348 351 352 359 2 360 357 354 351 346 346 344 344 341 331 327 326 327 330 331 331 328 323 322 317 309 302 294 288 287 288 288 288 287 285 283 281 277 276 276 276 276 277
338 340 343 347 348 347 345 345 345 341 338 338 338 336 332 326 323 327 329 329 329 328 323 318 316 309 300 293 290 289 289 287 287 286 285 284 283 280 279 280 277 276 274
327 329 330 333 337 338 336 335 336 334 332 333 331 328 327 327 324 323 321 322 323 323 320 314 309 304 299 296 294 293 291 289 287 285 284 283 283 282 280 279 278 276 273
315 316 321 325 331 330 331 330 330 325 325 325 324 324 322 318 318 318 315 315 314 313 312 309 303 299 295 294 292 293 290 288 287 286 282 280 281 282 284 279 278 276 275
312 314 315 319 322 324 325 326 326 322 322 321 320 318 319 315 314 314 312 310 308 307 307 306 303 299 296 294 293 293 292 288 286 286 283 281 280 283 284 283 280 278 276
307 313 311 313 319 325 325 323 324 321 319 318 317 316 314 315 313 312 312 310 308 307 307 306 303 300 297 294 293 291 288 286 286 286 284 281 279 281 282 282 282 279 278
309 317 319 314 314 318 322 325 323 322 320 316 315 313 312 312 311 312 313 312 310 309 307 306 302 302 298 294 293 290 287 287 288 287 287 285 282 281 281 281 281 281 279
307 310 315 316 312 314 321 324 325 323 322 317 316 316 315 313 310 310 310 308 308 308 309 309 307 302 299 297 294 294 289 287 289 289 289 286 284 282 281 281 282 281 280
304 308 310 308 309 313 315 317 319 319 318 315 313 313 313 312 310 310 309 307 309 310 309 308 306 304 301 300 296 295 294 292 291 291 290 288 285 282 281 281 282 282 280
296 300 305 306 306 307 311 314 309 310 312 313 310 310 310 310 310 308 307 307 307 307 308 308 309 308 304 301 299 296 294 295 294 292 291 288 287 285 283 282 281 281 280
293 298 300 301 301 303 305 307 308 308 309 309 308 307 309 311 311 308 305 306 306 305 306 306 306 306 306 303 300 296 294 293 294 293 291 289 288 287 286 285 284 283 282
289 293 295 297 299 300 301 302 303 306 305 305 304 305 306 307 307 308 306 306 307 306 306 306 305 305 305 302 299 297 295 294 293 293 293 293 294 291 287 286 286 285 285
286 290 295 296 297 299 301 303 302 302 302 303 304 303 305 305 304 304 305 305 305 304 304 304 304 303 301 299 298 296 295 294 292 292 293 293 293 294 292 289 288 287 288
288 293 297 295 296 297 297 298 300 300 302 303 304 303 303 305 304 303 303 303 302 304 303 302 302 301 299 296 295 294 293 292 291 291 291 292 292 293 293 291 290 289 288
288 291 292 294 292 293 295 296 297 298 299 300 301 302 303 303 302 302 302 303 302 302 303 301 300 300 298 296 294 291 290 290 291 291 290 290 290 290 291 291 290 289 289
284 286 288 290 289 290 292 293 295 295 296 298 298 299 301 302 301 301 300 300 299 300 300 300 300 299 298 294 292 289 288 289 289 290 290 290 290 289 290 289 288 289 289
285 284 285 284 286 288 287 289 291 292 294 296 299 300 300 300 300 300 300 299 299 300 299 298 298 297 296 294 291 289 288 288 288 288 289 288 289 289 289 289 288 289 289
285 284 281 282 284 285 286 288 289 290 292 293 297 298 298 298 298 298 298 298 298 298 298 298 297 295 294 292 291 290 288 288 288 289 288 287 288 289 289 288 288 288 288
285 283 282 281 282 285 287 289 290 291 292 293 295 296 297 296 296 296 296 296 296 297 297 296 295 294 294 293 291 290 288 289 290 289 289 288 289 290 289 288 288 288 287
282 281 281 282 282 284 287 287 289 291 292 293 293 294 295 295 295 294 295 295 296 296 296 296 295 294 293 293 292 289 288 288 289 289 289 289 290 290 289 289 289 289 288
281 281 281 282 282 283 285 286 289 290 291 292 293 294 295 296 295 295 295 296 296 296 296 296 295 293 292 291 290 288 288 288 288 289 289 289 290 291 291 290 289 289 289
281 280 279 281 284 286 287 287 288 288 289 290 291 292 293 294 295 294 295 295 295 296 296 295 294 293 291 291 289 287 286 286 287 287 288 288 289 289 290 290 289 288 289
283 281 281 281 282 287 288 288 289 288 288 289 290 291 292 293 294 294 294 294 295 295 295 294 294 293 291 289 287 286 286 285 285 285 286 286 286 287 288 288 287 287 289
283 283 283 284 286 288 290 289 288 288 287 288 290 291 292 293 294 294 295 295 295 295 295 294 294 294 292 289 287 286 284 284 284 285 286 286 285 286 286 287 287 288 289
285 287 286 287 287 288 289 290 289 289 290 291 291 293 294 294 295 295 295 295 294 294 293 294 293 292 290 289 288 287 285 284 286 287 288 287 286 286 286 286 287 288 288
Height
5892 5891 5890 5889 5887 5886 5885 5884 5883 5881 5880 5879 5878 5877 5877 5876 5875 5874 5873 5871 5870 5869 5868 5867 5865 5864 5864 5863 5862 5862 5861 5860 5860 5859 5858 5858 5857 5857 5857 5857 5856 5856 5856
5892 5891 5889 5888 5887 5885 5884 5883 5882 5880 5879 5878 5877 5876 5875 5875 5874 5873 5872 5870 5869 5867 5866 5865 5864 5862 5861 5860 5860 5859 5859 5858 5857 5856 5856 5855 5855 5854 5854 5853 5853 5853 5853
5892 5890 5889 5887 5886 5885 5883 5882 5881 5879 5878 5877 5876 5875 5874 5873 5872 5871 5870 5869 5867 5866 5865 5863 5862 5861 5860 5858 5857 5857 5856 5855 5854 5853 5853 5852 5851 5851 5851 5850 5850 5849 5849
5890 5889 5887 5886 5884 5883 5882 5880 5879 5878 5877 5876 5875 5874 5873 5872 5870 5870 5868 5867 5866 5864 5863 5861 5860 5858 5857 5856 5855 5854 5853 5852 5851 5850 5849 5849 5848 5848 5847 5847 5846 5846 5845
5888 5887 5886 5884 5882 5881 5880 5878 5877 5876 5875 5874 5873 5872 5871 5870 5869 5867 5866 5865 5863 5862 5860 5859 5857 5856 5854 5853 5852 5851 5850 5849 5848 5847 5846 5845 5844 5844 5844 5843 5842 5842 5841
5887 5885 5884 5882 5881 5879 5878 5877 5876 5874 5873 5872 5871 5870 5869 5868 5867 5865 5863 5862 5861 5859 5857 5856 5854 5853 5851 5850 5849 5847 5847 5846 5845 5844 5843 5842 5841 5840 5840 5839 5839 5838 5837
5884 5883 5881 5880 5879 5878 5876 5875 5874 5872 5871 5870 5869 5868 5867 5865 5864 5862 5861 5859 5858 5856 5854 5853 5851 5849 5848 5846 5845 5844 5843 5842 5841 5840 5839 5838 5837 5837 5836 5835 5834 5834 5833
5882 5881 5879 5878 5877 5876 5874 5873 5871 5870 5869 5868 5866 5865 5864 5862 5861 5859 5857 5856 5854 5853 5851 5849 5847 5846 5844 5842 5841 5840 5839 5838 5837 5836 5835 5834 5833 5832 5831 5831 5830 5829 5828
5880 5879 5877 5876 5875 5874 5872 5870 5869 5868 5867 5865 5864 5862 5860 5859 5857 5856 5854 5852 5850 5849 5847 5845 5843 5841 5840 5838 5837 5836 5835 5834 5833 5831 5830 5829 5828 5827 5826 5825 5824 5824 5823
5877 5876 5875 5874 5873 5871 5870 5868 5866 5865 5864 5862 5861 5859 5857 5855 5854 5852 5850 5848 5846 5844 5843 5841 5839 5837 5835 5834 5833 5831 5830 5829 5828 5827 5825 5824 5823 5821 5820 5819 5818 5817 5817
5874 5873 5872 5871 5869 5868 5866 5865 5863 5862 5861 5859 5858 5856 5854 5852 5850 5848 5846 5844 5843 5841 5839 5837 5835 5833 5832 5830 5828 5827 5826 5825 5823 5822 5820 5819 5817 5816 5814 5813 5812 5811 5810
5871 5870 5869 5867 5866 5865 5863 5862 5860 5859 5857 5856 5854 5852 5850 5848 5846 5844 5842 5841 5839 5837 5835 5833 5831 5829 5827 5825 5824 5822 5821 5819 5818 5816 5815 5813 5812 5810 5809 5807 5806 5804 5803
5867 5867 5865 5864 5863 5861 5859 5858 5857 5855 5853 5852 5850 5848 5846 5844 5842 5840 5838 5836 5834 5832 5830 5828 5826 5824 5822 5820 5818 5817 5815 5813 5812 5810 5809 5808 5806 5804 5802 5801 5799 5798 5796
5864 5863 5862 5860 5858 5857 5855 5854 5852 5851 5849 5848 5846 5844 5842 5839 5837 5835 5833 5831 5829 5827 5825 5823 5821 5819 5817 5815 5813 5811 5809 5807 5806 5804 5803 5801 5800 5798 5796 5794 5793 5791 5790
5859 5858 5857 5855 5854 5852 5851 5849 5848 5846 5844 5842 5841 5839 5837 5834 5832 5830 5827 5825 5823 5821 5819 5817 5815 5813 5811 5809 5807 5805 5803 5801 5800 5798 5796 5795 5793 5791 5789 5787 5786 5784 5783
5855 5854 5852 5851 5849 5848 5846 5844 5842 5840 5838 5837 5835 5833 5831 5828 5826 5824 5821 5819 5817 5815 5812 5810 5808 5806 5804 5802 5800 5799 5797 5795 5793 5791 5790 5788 5786 5784 5782 5781 5779 5777 5775
5850 5848 5846 5845 5843 5842 5840 5838 5836 5835 5833 5831 5828 5826 5824 5822 5819 5817 5814 5812 5810 5808 5806 5803 5801 5799 5797 5795 5793 5792 5790 5788 5786 5784 5783 5781 5779 5777 5775 5773 5771 5770 5768
5843 5841 5840 5838 5836 5835 5833 5832 5830 5828 5826 5824 5822 5819 5817 5815 5812 5810 5807 5805 5803 5801 5799 5796 5794 5792 5790 5788 5786 5784 5782 5781 5779 5777 5775 5773 5772 5770 5768 5766 5764 5762 5760
5836 5834 5832 5831 5830 5828 5827 5825 5823 5821 5819 5817 5815 5812 5810 5807 5805 5803 5800 5798 5796 5794 5791 5789 5787 5785 5783 5781 5779 5777 5775 5773 5771 5769 5768 5766 5764 5762 5760 5758 5756 5754 5752
5829 5827 5825 5824 5822 5821 5819 5818 5816 5814 5812 5809 5807 5804 5802 5800 5797 5795 5793 5790 5788 5786 5784 5781 5779 5777 5775 5773 5771 5769 5767 5765 5763 5761 5759 5758 5756 5754 5751 5749 5747 5745 5743
5821 5819 5818 5817 5815 5813 5811 5809 5807 5805 5803 5801 5798 5796 5794 5792 5789 5787 5785 5783 5780 5778 5776 5774 5771 5769 5767 5765 5763 5761 5759 5757 5755 5753 5751 5749 5747 5745 5743 5741 5739 5737 5734
5813 5811 5810 5808 5807 5805 5802 5801 5799 5796 5794 5793 5790 5788 5786 5783 5781 5779 5777 5774 5772 5770 5767 5765 5763 5760 5758 5756 5754 5751 5750 5748 5746 5745 5743 5740 5738 5736 5734 5732 5730 5728 5726
5805 5803 5801 5800 5798 5796 5794 5792 5790 5788 5786 5784 5782 5780 5777 5775 5773 5770 5768 5766 5763 5761 5759 5756 5754 5752 5749 5747 5744 5742 5741 5739 5737 5736 5734 5732 5730 5727 5725 5723 5721 5719 5717
5796 5794 5792 5790 5789 5787 5785 5783 5782 5780 5778 5775 5773 5771 5769 5766 5764 5761 5759 5756 5754 5751 5749 5747 5744 5742 5739 5737 5735 5733 5731 5729 5728 5726 5724 5723 5720 5719 5717 5714 5712 5710 5708
5788 5786 5784 5782 5780 5779 5777 5775 5773 5771 5769 5766 5764 5762 5760 5757 5754 5752 5749 5746 5744 5741 5739 5736 5734 5731 5729 5726 5724 5723 5721 5720 5718 5716 5715 5713 5711 5709 5707 5705 5703 5701 5699
5779 5777 5775 5773 5772 5770 5768 5766 5763 5761 5759 5757 5755 5753 5750 5748 5745 5742 5739 5736 5734 5731 5729 5726 5724 5721 5719 5716 5715 5713 5711 5709 5708 5707 5705 5703 5701 5699 5697 5695 5693 5691 5689